Terminal Aerodrome Forecast
Issued by NWS Wilmington, NC

Home | Current Version | Previous Version | Text Only | Print | Product List | Glossary On
Versions: 1 2 3 4 5 6 7 8 9 10 11 12 13
907
FTUS42 KILM 300529
TAFILM
TAF
KILM 300529Z 3006/3106 12004KT P6SM VCSH SCT008 OVC040
     FM300800 08004KT P6SM VCSH SCT008 OVC025
     FM301400 13009KT P6SM -SHRA BKN025 OVC050
     FM302200 10008KT P6SM -SHRA SCT025 OVC050
     FM310200 VRB04KT P6SM VCSH BKN050=

USA.gov is the U.S. government's official web portal to all federal, state and local government web resources and services.